Weather Roundup
Issued by NWS

Home | Current Version | Previous Version | Graphics & Text | Print | Product List | Glossary Off
Versions: 1 2 3 4 5 6 7 8 9 10 11 12 13 14 15 16 17 18 19 20 21 22 23 24 25 26 27 28 29 30 31 32 33 34 35 36 37 38 39 40 41 42 43 44 45 46 47 48 49 50

000
NZUS93 KARX 221559
HRRWXR

CURRENT HOURLY OBSERVATIONS ACROSS
MUCH OF THE UPPER MISSISSIPPI VALLEY
NATIONAL WEATHER SERVICE LA CROSSE WI
1100 AM CDT FRI MAY 22 2015


...SOUTHEAST MINNESOTA...


CITY           SKY/WX    TMP DP  RH WIND       PRES   REMARKS
ROCHESTER      SUNNY     67  37  33 N6        30.24R
ROCHESTER/MAYO FAIR      66  30  26 NW3       30.22S
WINONA         SUNNY     63  43  48 CALM      30.22R
AUSTIN         SUNNY     68  37  32 NE3       30.22R
ALBERT LEA     SUNNY     66  32  28 CALM      30.21S
DODGE CENTER   MOSUNNY   66  28  24 CALM      30.22S
PRESTON        SUNNY     65  34  31 CALM      30.22S
OWATONNA       SUNNY     66  30  26 CALM      30.22S
FARIBAULT      SUNNY     66  32  28 W3        30.23R
$$

...ELSEWHERE IN MINNESOTA...


CITY           SKY/WX    TMP DP  RH WIND       PRES   REMARKS
MINNEAPOLIS    SUNNY     67  34  29 CALM      30.22R
INTNL FALLS    SUNNY     65  29  25 W7        30.18S
DULUTH         SUNNY     64  31  28 NW9       30.21S
RED WING       SUNNY     68  36  30 W3        30.21R
REDWOOD FALLS  SUNNY     67  33  28 S3        30.21F
MANKATO        SUNNY     66  34  30 CALM      30.22F
WORTHINGTON    SUNNY     66  34  30 SW6       30.22S
FAIRMONT       SUNNY     68  34  28 E6        30.21F
$$

...SOUTHWEST WISCONSIN...


CITY           SKY/WX    TMP DP  RH WIND       PRES   REMARKS
LA CROSSE      SUNNY     66  44  45 S8        30.21R
PRAIRIE DU CHI SUNNY     64  44  47 CALM      30.21R
BOSCOBEL       SUNNY     69  40  34 VRB3      30.22R
LONE ROCK      NOT AVBL
PLATTEVILLE    SUNNY     63  40  42 E3        30.22R
FORT MC COY    SUNNY     64  33  31 CALM      30.21R
VIROQUA        FAIR      62  38  40 S6        30.22R
WIS DELLS      SUNNY     61  30  31 CALM      30.22S
$$

...ELSEWHERE IN WISCONSIN...


CITY           SKY/WX    TMP DP  RH WIND       PRES   REMARKS
MILWAUKEE      SUNNY     54  31  41 NE10      30.25R
MADISON        MOSUNNY   62  34  35 CALM      30.22R
GREEN BAY      SUNNY     60  30  32 CALM      30.23F
EAU CLAIRE     NOT AVBL
BLACK RVR FLS  FAIR      64  34  33 NE5       30.20S
MEDFORD        SUNNY     58  32  37 CALM      30.21F
WAUSAU         SUNNY     61  30  31 VRB3      30.20F
WIS RAPIDS     SUNNY     63  27  25 N5        30.23S
MARSHFIELD     SUNNY     62  35  36 SE3       30.21F
RICE LAKE      SUNNY     63  28  26 W6        30.23S
$$

...NORTHEAST IOWA...


CITY           SKY/WX    TMP DP  RH WIND       PRES   REMARKS
DECORAH        SUNNY     64  39  39 N5        30.21R
MASON CITY     SUNNY     69  35  28 VRB5      30.23S
CHARLES CITY   SUNNY     68  32  26 CALM      30.22S
OELWEIN        SUNNY     68  36  30 NW7       30.22R
$$

...ELSEWHERE IN IOWA...


CITY           SKY/WX    TMP DP  RH WIND       PRES   REMARKS
DES MOINES     CLOUDY    70  42  36 CALM      30.22S
IOWA CITY      SUNNY     70  44  39 VRB3      30.22R
FORT DODGE     SUNNY     66  43  42 CALM      30.23S
$$

...NORTHERN ILLINOIS...


CITY           SKY/WX    TMP DP  RH WIND       PRES   REMARKS
CHICAGO-OHARE  MOSUNNY   61  32  33 NE10      30.22R
CHICAGO-MIDWAY MOSUNNY   63  42  46 E8        30.22R
MOLINE         SUNNY     70  43  37 W5        30.20R
ROCKFORD       MOSUNNY   66  40  38 NE6       30.24R
PEORIA         SUNNY     73  48  41 CALM      30.20S
$$

NOTE: "FAIR" INDICATES FEW OR NO CLOUDS BELOW 12,000 FEET WITH NO
SIGNIFICANT WEATHER AND/OR OBSTRUCTIONS TO VISIBILITY. WIND
SPEEDS ARE IN MILES-PER-HOUR.



USA.gov is the U.S. government's official web portal to all federal, state and local government web resources and services.